Other Public Products
Issued by NWS Charleston, SC

Home | Current Version | Previous Version | Text Only | Print | Product List | Glossary On
Versions: 1 2 3 4 5 6 7 8 9 10 11 12 13 14 15 16 17 18 19 20 21 22 23 24 25 26 27 28 29 30 31 32 33 34 35 36 37 38 39 40 41 42 43 44 45 46 47 48 49 50
300
FPUS82 KCHS 261912
OPUCHS

TEST...KCHS/KSAV Gateway Observations...TEST
National Weather Service Charleston SC
300 PM EDT SUN MAR 26 2017

NOTE: "fair" indicates few or no clouds below 12,000 feet with no
significant weather and/or obstructions to visibility.

SCZ050-WAZ558-NCZ071-TXZ119-213-PAZ071-DCZ001-FLZ074-172-MI076-
NYZ176-178-MAZ016-IL014-TNZ027-NJZ106-GAZ044-MD014-262000-

...Gateway Observations for Charleston International...

CITY           SKY/WX    TMP DP  RH WIND       PRES   REMARKS
Chas Airport   MOSUNNY   78  52  40 SW9G17    30.16F
Seattle        LGT RAIN  47  41  80 E7        29.79F
Charlotte      CLOUDY    67  60  78 SW9       30.15F
Dallas DFW     PTSUNNY   82  60  47 S23G35    29.78F
Dallas Love    PTSUNNY   82  60  47 S16G28    29.81F
Philladelphia  CLOUDY    45  39  79 E13       30.37F
Wash National  CLOUDY    49  46  90 E10       30.30F
Baltimore      CLOUDY    47  45  93 E13       30.31F FOG
Miami          PTSUNNY   82  62  50 E12       30.07F
Detroit        CLOUDY    49  47  93 E7        29.94F FOG
Newark         CLOUDY    44  34  67 E9        30.42F
Laguardia      CLOUDY    42  33  70 NE14      30.43F
J F K          CLOUDY    43  36  76 E14       30.43F
Boston Logan   LGT RAIN  37  28  70 E12       30.53F WCI  29
Ft. Lauderdale CLOUDY    77  65  66 E16       30.07F
Chicago O`Hare CLOUDY    61  52  72 SW9       29.80F
Chicago Midway CLOUDY    61  53  75 SW10      29.81F
Houston Bush   MOSUNNY   84  64  50 S13       29.89F
Houston Hobby  MOSUNNY   82  65  56 S15       29.88F
Nashville      PTSUNNY   71  55  56 S21G26    29.98F
Atlanta        PTSUNNY   77  56  48 SW14G21   30.08F

$$

GAZ044-118-TXZ119-213-NCZ071-DCZ001-MDZ014-506-PAZ021-071-NJZ106-
NYZ176-178-MAZ106-OHZ011-021-055-MIZ076-KYZ091-ILZ014-INZ047-
MNZ060-ONZ431-262000-

...Gateway Observations for Savannah International...

CITY           SKY/WX    TMP DP  RH WIND       PRES   REMARKS
Savannah Arpt  MOSUNNY   81  56  42 S14       30.14F
Atlanta        PTSUNNY   77  56  48 SW14G21   30.08F
Charlotte      CLOUDY    67  60  78 SW9       30.15F
Dallas DFW     PTSUNNY   82  60  47 S23G35    29.78F
Houston Bush   MOSUNNY   84  64  50 S13       29.89F
Wash National  CLOUDY    49  46  90 E10       30.30F
Wash Dulles    CLOUDY    48  43  82 E12       30.27F
Baltimore      CLOUDY    47  45  93 E13       30.31F FOG
Philadelphia   CLOUDY    45  39  79 E13       30.37F
Newark         CLOUDY    44  34  67 E9        30.42F
Laguardia      CLOUDY    42  33  70 NE14      30.43F
J F K          CLOUDY    43  36  76 E14       30.43F
Boston         LGT RAIN  37  28  70 E12       30.53F WCI  29
Pittsburg      LGT RAIN  64  49  57 SE12      30.01F
Akron          CLOUDY    62  53  72 S16       29.98F
Cleveland      LGT RAIN  63  54  72 S8        29.97F
Cincinnati     PTSUNNY   64  56  75 SW8       29.92F
Columbus       RAIN      56  56  99 SW10      29.97S
Detroit        CLOUDY    49  47  93 E7        29.94F FOG
Chicago O`Hare CLOUDY    61  52  72 SW9       29.80F
Minneapolis    CLOUDY    42  35  76 NE6       29.91S
Indianapolis   CLOUDY    60  55  83 S14       29.88F
Toronto Canada CLOUDY    37  34  87 E15G23    30.08F WCI  28

$$




USA.gov is the U.S. government's official web portal to all federal, state and local government web resources and services.